Regional Weather Roundup
Issued by NWS Mt. Holly, NJ

Home | Current Version | Previous Version | Text Only | Print | Product List | Glossary On
Versions: 1 2 3 4 5 6 7 8 9 10 11 12 13 14 15 16 17 18 19 20 21 22 23 24 25 26 27 28 29 30 31 32 33 34 35 36 37 38 39 40 41 42 43 44 45 46 47 48 49 50
000
ASUS41 KPHI 091412
RWRPHI

REGIONAL WEATHER ROUNDUP
NATIONAL WEATHER SERVICE MOUNT HOLLY NJ
1000 AM EDT SUN AUG 09 2020

NOTE:  "FAIR" INDICATES FEW OR NO CLOUDS BELOW 12,000 FEET WITH NO
SIGNIFICANT WEATHER AND/OR OBSTRUCTIONS TO VISIBILITY.

 * = STATION DOES NOT REPORT PRECIPITATION (E.G. RAIN, SNOW, ETC.)
        OR FOG.

NJZ015>026-091500-
SOUTHERN NEW JERSEY

CITY           SKY/WX    TMP DP  RH WIND       PRES   REMARKS
POMONA         SUNNY     82  72  71 CALM      30.14F
WILDWOOD*        N/A    N/A N/A N/A MISG        N/A
MILLVILLE      SUNNY     81  71  71 CALM      30.14F
WRIGHTSTOWN    SUNNY     81  71  69 W5        30.14F
MOUNT HOLLY      N/A    N/A N/A N/A MISG      30.14S
TRENTON        SUNNY     78  72  81 SW5       30.13F

$$
NJZ001>014-091500-
NORTHERN NEW JERSEY

CITY           SKY/WX    TMP DP  RH WIND       PRES   REMARKS
SUSSEX         CLOUDY    72  70  93 VRB3      30.14S
ANDOVER*         N/A     75  70  84 SW5       30.15S
MORRISTOWN     SUNNY     82  75  78 CALM      30.13F
NEWARK         MOSUNNY   82  71  69 VRB5      30.12F
TETERBORO      SUNNY     79  71  76 S5        30.11F
CALDWELL       MOSUNNY   79  70  74 W3        30.13F
SOMERVILLE     MOSUNNY   79  71  76 CALM      30.12F
ALLAIRE*       SUNNY     83  75  77 VRB6      30.15F HX  90
TOMS RIVER*    MOSUNNY   83  72  69 SW5       30.15F

$$
PAZ043-044-047-054-055-060>062-066>071-091500-
EASTERN PENNSYLVANIA

CITY           SKY/WX    TMP DP  RH WIND       PRES   REMARKS
PHILADELPHIA   MOSUNNY   80  71  74 VRB5      30.14F
NORTH PHILA    SUNNY     81  71  71 SW6       30.15F
BLUE BELL*     MOSUNNY   81  72  74 SW5       30.15S
DOYLESTOWN     SUNNY     81  69  67 VRB7      30.14F
QUAKERTOWN*    SUNNY     79  72  78 CALM      30.16S
PERKASIE*      FAIR      77  73  88 W3        30.16F
POTTSTOWN      SUNNY     78  68  71 VRB3      30.16F
LANCASTER      SUNNY     79  70  74 CALM      30.15S
COATESVILLE    SUNNY     79  72  78 CALM      30.17F
WEST CHESTER   FAIR      79  70  73 SW5       30.16S
READING        MOSUNNY   80  71  74 VRB3      30.13S
ALLENTOWN      SUNNY     76  69  79 CALM      30.14F
QN CITY/ALNTWN FAIR      79  72  78 CALM      30.16S
MOUNT POCONO   SUNNY     74  66  76 W7        30.19S
HAZLETON       SUNNY     75  64  69 NW3       30.22S
LEHIGHTON      FAIR      72  72 100 CALM      30.16F
WILKES BARRE   SUNNY     78  68  71 W7        30.15F

$$
DEZALL-MDZ008-012-015-019-020-091500-
DELAWARE AND EASTERN MARYLAND

CITY           SKY/WX    TMP DP  RH WIND       PRES   REMARKS
WILMINGTON     SUNNY     79  72  79 CALM      30.15F
DOVER          DRIZZLE   81  72  74 CALM      30.14F
CHESWOLD       MOSUNNY   81  75  83 CALM      30.15S
GEORGETOWN     MOSUNNY   82  74  76 CALM      30.15F
EASTON         PTSUNNY   82  75  78 CALM      30.18F
STEVENSVILLE   SUNNY     81  75  83 W3        30.15S
ABERDEEN       PTSUNNY   80  74  81 W6        30.14
PATUXENT       MOSUNNY   83  76  79 CALM      30.14F HX  91
OCEAN CITY     MOSUNNY   80  73  79 S6        30.16F
WALLOPS ISLAND PTSUNNY   79  73  82 MISG      30.16F
CAMBRIDGE      MOSUNNY   81  73  78 CALM      30.15S
SALISBURY      MOSUNNY   81  72  74 CALM      30.15F

$$
PAZ001-021-NYZ056-072-MDZ011-DCZ001-091500-
OTHER NEARBY LOCATIONS

CITY           SKY/WX    TMP DP  RH WIND       PRES   REMARKS
HARRISBURG     MOSUNNY   79  69  71 W7        30.14S
STATE COLLEGE  SUNNY     75  63  64 CALM      30.18F
WILLIAMSPORT   SUNNY     76  63  64 W5        30.14F
BINGHAMTON     SUNNY     69  64  84 CALM      30.16F
NEW YORK CITY    N/A     78  69  73 SW6       30.16F
BALTIMORE      MOSUNNY   82  72  71 W8        30.14F
WASHINGTON DC  MOSUNNY   81  73  76 SE6       30.15F

$$




USA.gov is the U.S. government's official web portal to all federal, state and local government web resources and services.